DLH3LR EDDM-EDDL

Flight info

Callsign DLH3LR
Flight time 0h 51m
Altitude 32000
Route GIVMI Y101 INBED DCT REKDI DCT LOHRE Z850 ADEMI T854 DOMUX
Aircraft A321/M-SDE3FGHIRWY/LB1

Departure

Time 2026-05-07 19:19
Airport Munich Airport (EDDM)

Arrival

Time 2026-05-07 20:10
Airport Düsseldorf Airport (EDDL)
Time Latitude Longitude Altitude Speed Heading
2026-05-07 18:53 48.35694 11.79700 1486 ft 0 kts 83°
2026-05-07 19:08 48.35694 11.79695 1485 ft 3 kts 83°
2026-05-07 19:08 48.35690 11.79655 1482 ft 4 kts 79°
2026-05-07 19:08 48.35684 11.79616 1475 ft 4 kts 72°
2026-05-07 19:08 48.35674 11.79579 1471 ft 4 kts 55°
2026-05-07 19:09 48.35657 11.79556 1474 ft 3 kts 360°
2026-05-07 19:09 48.35653 11.79556 1475 ft 0 kts 353°
2026-05-07 19:12 48.35664 11.79554 1474 ft 4 kts 352°
2026-05-07 19:12 48.35715 11.79544 1485 ft 13 kts 353°
2026-05-07 19:12 48.35836 11.79523 1485 ft 22 kts 353°
2026-05-07 19:13 48.35994 11.79495 1482 ft 23 kts 353°
2026-05-07 19:13 48.36157 11.79469 1481 ft 23 kts 360°
2026-05-07 19:13 48.36225 11.79595 1480 ft 17 kts 85°
2026-05-07 19:13 48.36237 11.79779 1479 ft 19 kts 83°
2026-05-07 19:14 48.36256 11.79980 1485 ft 20 kts 85°
2026-05-07 19:14 48.36269 11.80195 1481 ft 22 kts 83°
2026-05-07 19:14 48.36281 11.80354 1474 ft 23 kts 83°
2026-05-07 19:14 48.36301 11.80607 1485 ft 25 kts 83°
2026-05-07 19:15 48.36322 11.80876 1485 ft 27 kts 83°
2026-05-07 19:15 48.36345 11.81156 1485 ft 21 kts 81°
2026-05-07 19:15 48.36419 11.81171 1484 ft 14 kts 303°
2026-05-07 19:15 48.36462 11.81029 1482 ft 16 kts 293°
2026-05-07 19:16 48.36490 11.80935 1479 ft 2 kts 294°
2026-05-07 19:16 48.36491 11.80934 1479 ft 0 kts 294°
2026-05-07 19:16 48.36492 11.80929 1481 ft 2 kts 294°
2026-05-07 19:17 48.36506 11.80881 1482 ft 9 kts 293°
2026-05-07 19:17 48.36536 11.80776 1483 ft 13 kts 293°
2026-05-07 19:17 48.36567 11.80641 1485 ft 15 kts 283°
2026-05-07 19:17 48.36569 11.80580 1476 ft 0 kts 266°
2026-05-07 19:18 48.36551 11.80333 1475 ft 62 kts 263°
2026-05-07 19:18 48.36473 11.79313 1486 ft 132 kts 264°
2026-05-07 19:18 48.36349 11.77672 1653 ft 170 kts 264°
2026-05-07 19:19 48.36233 11.75949 2521 ft 164 kts 264°
2026-05-07 19:19 48.36097 11.74193 3068 ft 179 kts 264°
2026-05-07 19:19 48.35926 11.72229 3432 ft 198 kts 263°
2026-05-07 19:19 48.35748 11.70073 3734 ft 219 kts 264°
2026-05-07 19:20 48.35862 11.67707 4155 ft 235 kts 290°
2026-05-07 19:20 48.36634 11.65451 4683 ft 253 kts 300°
2026-05-07 19:20 48.37552 11.63110 5245 ft 266 kts 301°
2026-05-07 19:20 48.38536 11.60734 6070 ft 267 kts 301°
2026-05-07 19:21 48.39535 11.58377 6958 ft 267 kts 301°
2026-05-07 19:21 48.40532 11.56016 7784 ft 268 kts 300°
2026-05-07 19:21 48.41527 11.53630 8598 ft 270 kts 300°
2026-05-07 19:21 48.42519 11.51221 9414 ft 271 kts 299°
2026-05-07 19:22 48.43511 11.48787 10128 ft 274 kts 299°
2026-05-07 19:22 48.44616 11.46385 10564 ft 291 kts 311°
2026-05-07 19:22 48.46392 11.44665 10705 ft 321 kts 338°
2026-05-07 19:22 48.48639 11.43801 10883 ft 343 kts 343°
2026-05-07 19:23 48.50995 11.43003 11395 ft 350 kts 344°
2026-05-07 19:23 48.53389 11.42210 12011 ft 354 kts 344°
2026-05-07 19:23 48.55806 11.41404 12649 ft 358 kts 344°
2026-05-07 19:23 48.58244 11.40581 13288 ft 361 kts 344°
2026-05-07 19:24 48.60714 11.39784 13911 ft 366 kts 349°
2026-05-07 19:24 48.63280 11.39889 14443 ft 376 kts
2026-05-07 19:24 48.65815 11.40960 15016 ft 380 kts 14°
2026-05-07 19:24 48.68347 11.42156 15594 ft 383 kts 14°
2026-05-07 19:25 48.70896 11.43377 16172 ft 386 kts 14°
2026-05-07 19:25 48.73464 11.44617 16753 ft 389 kts 14°
2026-05-07 19:25 48.76053 11.45816 17337 ft 389 kts
2026-05-07 19:25 48.78728 11.46146 17872 ft 385 kts 352°
2026-05-07 19:26 48.81310 11.45252 18395 ft 380 kts 334°
2026-05-07 19:26 48.83636 11.43377 18856 ft 379 kts 327°
2026-05-07 19:26 48.85924 11.41349 19306 ft 382 kts 327°
2026-05-07 19:26 48.88227 11.39305 19778 ft 385 kts 327°
2026-05-07 19:27 48.90552 11.37246 20255 ft 387 kts 327°
2026-05-07 19:27 48.92856 11.35209 20721 ft 390 kts 327°
2026-05-07 19:27 48.95242 11.33099 21194 ft 392 kts 327°
2026-05-07 19:27 48.97608 11.31003 21666 ft 395 kts 327°
2026-05-07 19:28 48.99994 11.28889 22101 ft 398 kts 327°
2026-05-07 19:28 49.02398 11.26759 22542 ft 401 kts 327°
2026-05-07 19:28 49.04669 11.24313 22969 ft 401 kts 317°
2026-05-07 19:28 49.06796 11.21537 23416 ft 403 kts 317°
2026-05-07 19:29 49.08929 11.18743 23823 ft 406 kts 317°
2026-05-07 19:29 49.11075 11.15925 24206 ft 408 kts 317°
2026-05-07 19:29 49.13231 11.13084 24576 ft 411 kts 317°
2026-05-07 19:29 49.15398 11.10222 24946 ft 413 kts 317°
2026-05-07 19:30 49.17577 11.07344 25301 ft 415 kts 317°
2026-05-07 19:30 49.19767 11.04452 25676 ft 417 kts 317°
2026-05-07 19:30 49.21971 11.01541 26055 ft 420 kts 317°
2026-05-07 19:30 49.24155 10.98647 26367 ft 423 kts 317°
2026-05-07 19:31 49.26390 10.95682 26694 ft 426 kts 317°
2026-05-07 19:31 49.28639 10.92698 27049 ft 429 kts 317°
2026-05-07 19:31 49.30865 10.89650 27406 ft 431 kts 316°
2026-05-07 19:31 49.33067 10.86520 27753 ft 433 kts 315°
2026-05-07 19:32 49.35255 10.83338 28104 ft 435 kts 315°
2026-05-07 19:32 49.37442 10.80123 28440 ft 437 kts 315°
2026-05-07 19:32 49.39641 10.76886 28761 ft 439 kts 315°
2026-05-07 19:32 49.41853 10.73644 29053 ft 441 kts 315°
2026-05-07 19:33 49.44081 10.70395 29337 ft 443 kts 315°
2026-05-07 19:33 49.46325 10.67142 29615 ft 445 kts 315°
2026-05-07 19:33 49.48584 10.63871 29979 ft 444 kts 316°
2026-05-07 19:33 49.50826 10.60622 30073 ft 444 kts 315°
2026-05-07 19:34 49.55314 10.54100 30074 ft 443 kts 315°
2026-05-07 19:34 49.57554 10.50828 30237 ft 444 kts 315°
2026-05-07 19:34 49.59790 10.47556 30584 ft 443 kts 315°
2026-05-07 19:35 49.62021 10.44286 30918 ft 442 kts 315°
2026-05-07 19:35 49.64249 10.41018 31233 ft 441 kts 315°
2026-05-07 19:35 49.66469 10.37755 31547 ft 441 kts 315°
2026-05-07 19:35 49.68687 10.34494 31868 ft 440 kts 315°
2026-05-07 19:36 49.70904 10.31230 32055 ft 440 kts 315°
2026-05-07 19:36 49.73102 10.27993 32088 ft 433 kts 315°
2026-05-07 19:36 49.77444 10.21579 32086 ft 431 kts 315°
2026-05-07 19:37 49.81773 10.15163 32084 ft 431 kts 315°
2026-05-07 19:37 49.86103 10.08731 32084 ft 431 kts 315°
2026-05-07 19:38 49.90428 10.02299 32079 ft 431 kts 315°
2026-05-07 19:38 49.94746 9.95855 32091 ft 430 kts 315°
2026-05-07 19:39 49.99051 9.89399 32094 ft 430 kts 315°
2026-05-07 19:39 50.03361 9.82933 32094 ft 430 kts 315°
2026-05-07 19:40 50.07668 9.76456 32090 ft 431 kts 315°
2026-05-07 19:40 50.11946 9.70010 32092 ft 431 kts 315°
2026-05-07 19:41 50.16255 9.63505 32090 ft 431 kts 315°
2026-05-07 19:41 50.20557 9.56994 32094 ft 430 kts 315°
2026-05-07 19:42 50.24872 9.50424 32099 ft 430 kts 315°
2026-05-07 19:42 50.29124 9.43934 32099 ft 430 kts 315°
2026-05-07 19:43 50.33404 9.37389 32097 ft 431 kts 315°
2026-05-07 19:43 50.37688 9.30832 32095 ft 431 kts 315°
2026-05-07 19:44 50.41969 9.24251 32098 ft 431 kts 315°
2026-05-07 19:44 50.46242 9.17651 32103 ft 431 kts 315°
2026-05-07 19:45 50.50514 9.11045 32109 ft 431 kts 315°
2026-05-07 19:45 50.54783 9.04441 32109 ft 431 kts 315°
2026-05-07 19:46 50.59051 8.97819 32102 ft 431 kts 314°
2026-05-07 19:46 50.63314 8.91175 31782 ft 432 kts 314°
2026-05-07 19:47 50.65448 8.87850 31534 ft 432 kts 315°
2026-05-07 19:47 50.67585 8.84517 31274 ft 432 kts 314°
2026-05-07 19:47 50.69720 8.81181 31020 ft 432 kts 314°
2026-05-07 19:47 50.71857 8.77836 30775 ft 433 kts 314°
2026-05-07 19:48 50.73996 8.74484 30526 ft 433 kts 314°
2026-05-07 19:48 50.76130 8.71128 30279 ft 434 kts 314°
2026-05-07 19:48 50.78269 8.67754 30004 ft 434 kts 314°
2026-05-07 19:48 50.80354 8.64304 29719 ft 434 kts 308°
2026-05-07 19:49 50.81910 8.60231 29435 ft 434 kts 292°
2026-05-07 19:49 50.82967 8.55761 29160 ft 435 kts 290°
2026-05-07 19:49 50.83986 8.51251 28872 ft 436 kts 289°
2026-05-07 19:49 50.84996 8.46723 28594 ft 437 kts 289°
2026-05-07 19:50 50.86000 8.42190 28309 ft 437 kts 289°
2026-05-07 19:50 50.86996 8.37705 28037 ft 437 kts 289°
2026-05-07 19:50 50.88019 8.33112 27761 ft 436 kts 289°
2026-05-07 19:50 50.89027 8.28594 27490 ft 434 kts 289°
2026-05-07 19:51 50.90019 8.24152 27227 ft 433 kts 289°
2026-05-07 19:51 50.91020 8.19665 26963 ft 431 kts 289°
2026-05-07 19:51 50.92014 8.15191 26707 ft 429 kts 288°
2026-05-07 19:51 50.92997 8.10732 26445 ft 428 kts 288°
2026-05-07 19:52 50.93973 8.06286 26189 ft 426 kts 288°
2026-05-07 19:52 50.94944 8.01864 25890 ft 422 kts 288°
2026-05-07 19:52 50.95904 7.97496 25314 ft 416 kts 288°
2026-05-07 19:52 50.96849 7.93193 24731 ft 411 kts 288°
2026-05-07 19:53 50.97782 7.88940 24161 ft 406 kts 288°
2026-05-07 19:53 50.98702 7.84740 23587 ft 401 kts 288°
2026-05-07 19:53 50.99607 7.80583 22985 ft 395 kts 288°
2026-05-07 19:53 51.00492 7.76492 22459 ft 388 kts 288°
2026-05-07 19:54 51.01360 7.72471 21927 ft 383 kts 288°
2026-05-07 19:54 51.02218 7.68499 21417 ft 377 kts 288°
2026-05-07 19:54 51.03064 7.64587 20929 ft 372 kts 288°
2026-05-07 19:54 51.03899 7.60730 20452 ft 368 kts 288°
2026-05-07 19:55 51.04729 7.56895 19982 ft 366 kts 288°
2026-05-07 19:55 51.05551 7.53087 19528 ft 363 kts 288°
2026-05-07 19:55 51.06365 7.49296 19068 ft 361 kts 288°
2026-05-07 19:55 51.07168 7.45532 18609 ft 359 kts 288°
2026-05-07 19:56 51.07966 7.41789 18127 ft 357 kts 288°
2026-05-07 19:56 51.08783 7.37953 17637 ft 370 kts 288°
2026-05-07 19:56 51.09601 7.34121 17183 ft 362 kts 288°
2026-05-07 19:56 51.10401 7.30358 16705 ft 355 kts 288°
2026-05-07 19:57 51.11185 7.26672 16210 ft 349 kts 288°
2026-05-07 19:57 51.11957 7.23035 15729 ft 345 kts 288°
2026-05-07 19:57 51.12718 7.19432 15241 ft 342 kts 288°
2026-05-07 19:57 51.13471 7.15851 14748 ft 340 kts 288°
2026-05-07 19:58 51.14216 7.12301 14265 ft 337 kts 287°
2026-05-07 19:58 51.14958 7.08765 13750 ft 335 kts 288°
2026-05-07 19:58 51.15695 7.05251 13233 ft 332 kts 288°
2026-05-07 19:58 51.16412 7.01835 13048 ft 318 kts 288°
2026-05-07 19:59 51.17092 6.98588 12922 ft 298 kts 288°
2026-05-07 19:59 51.17725 6.95561 12784 ft 278 kts 287°
2026-05-07 19:59 51.18123 6.93656 12633 ft 269 kts 287°
2026-05-07 19:59 51.18709 6.90835 12071 ft 268 kts 287°
2026-05-07 20:00 51.19290 6.88021 11569 ft 265 kts 287°
2026-05-07 20:00 51.19841 6.85234 11138 ft 264 kts 282°
2026-05-07 20:00 51.19948 6.82326 10721 ft 265 kts 262°
2026-05-07 20:00 51.19434 6.79512 10288 ft 267 kts 243°
2026-05-07 20:01 51.18388 6.77050 9808 ft 271 kts 233°
2026-05-07 20:01 51.17228 6.74645 9150 ft 278 kts 233°
2026-05-07 20:01 51.16051 6.72193 8371 ft 277 kts 233°
2026-05-07 20:01 51.14891 6.69771 7628 ft 273 kts 233°
2026-05-07 20:02 51.13741 6.67375 6890 ft 272 kts 233°
2026-05-07 20:02 51.12602 6.65007 6245 ft 265 kts 233°
2026-05-07 20:02 51.11537 6.62781 6068 ft 241 kts 233°
2026-05-07 20:02 51.10556 6.60713 5736 ft 230 kts 233°
2026-05-07 20:03 51.09600 6.58691 5304 ft 227 kts 233°
2026-05-07 20:03 51.08714 6.56636 4839 ft 227 kts 246°
2026-05-07 20:03 51.08385 6.54216 4495 ft 225 kts 274°
2026-05-07 20:03 51.08798 6.51863 4145 ft 221 kts 302°
2026-05-07 20:04 51.09840 6.50117 3767 ft 218 kts 330°
2026-05-07 20:04 51.11255 6.49346 3419 ft 215 kts 358°
2026-05-07 20:04 51.12714 6.49683 3084 ft 212 kts 25°
2026-05-07 20:04 51.13923 6.50894 2996 ft 200 kts 37°
2026-05-07 20:05 51.15031 6.52150 3000 ft 196 kts 36°
2026-05-07 20:05 51.16141 6.53402 3010 ft 195 kts 36°
2026-05-07 20:05 51.17246 6.54650 3004 ft 195 kts 36°
2026-05-07 20:05 51.18347 6.55894 3002 ft 191 kts 36°
2026-05-07 20:06 51.19337 6.57250 2927 ft 186 kts 50°
2026-05-07 20:06 51.20134 6.58852 2730 ft 183 kts 53°
2026-05-07 20:06 51.20897 6.60439 2514 ft 177 kts 53°
2026-05-07 20:06 51.21630 6.61967 2267 ft 171 kts 53°
2026-05-07 20:07 51.22336 6.63440 2046 ft 162 kts 53°
2026-05-07 20:07 51.22985 6.64793 1830 ft 146 kts 53°
2026-05-07 20:07 51.23585 6.66046 1642 ft 139 kts 53°
2026-05-07 20:07 51.24169 6.67265 1447 ft 137 kts 53°
2026-05-07 20:08 51.24747 6.68473 1263 ft 137 kts 54°
2026-05-07 20:08 51.25326 6.69682 1071 ft 137 kts 54°
2026-05-07 20:08 51.25902 6.70889 885 ft 136 kts 53°
2026-05-07 20:08 51.26470 6.72084 684 ft 135 kts 53°
2026-05-07 20:09 51.27040 6.73269 517 ft 135 kts 53°
2026-05-07 20:09 51.27602 6.74460 335 ft 134 kts 53°
2026-05-07 20:09 51.28173 6.75639 166 ft 134 kts 53°
2026-05-07 20:10 51.28942 6.77259 126 ft 45 kts 53°
2026-05-07 20:10 51.29022 6.77508 130 ft 17 kts 98°
2026-05-07 20:10 51.28974 6.77608 128 ft 9 kts 140°
2026-05-07 20:10 51.28960 6.77624 128 ft 0 kts 145°
2026-05-07 20:11 51.28953 6.77631 128 ft 3 kts 148°
2026-05-07 20:11 51.28920 6.77644 128 ft 6 kts 186°
2026-05-07 20:11 51.28878 6.77591 127 ft 11 kts 232°
2026-05-07 20:11 51.28810 6.77446 126 ft 20 kts 233°
2026-05-07 20:12 51.28717 6.77249 126 ft 24 kts 233°
2026-05-07 20:12 51.28611 6.77030 126 ft 26 kts 232°
2026-05-07 20:12 51.28500 6.76800 126 ft 25 kts 233°
2026-05-07 20:12 51.28395 6.76581 121 ft 23 kts 232°
2026-05-07 20:13 51.28325 6.76491 127 ft 10 kts 176°
2026-05-07 20:13 51.28255 6.76475 128 ft 10 kts 214°
2026-05-07 20:13 51.28177 6.76428 129 ft 15 kts 189°
2026-05-07 20:13 51.28073 6.76438 129 ft 16 kts 153°
2026-05-07 20:14 51.28032 6.76514 128 ft 2 kts 103°
2026-05-07 20:14 51.28031 6.76524 128 ft 0 kts 99°
2026-05-07 20:16 51.28031 6.76523 128 ft 0 kts 99°